User: anonymous   Login
Location: Chomutov
(50.4500°N, 13.4333°E)
Time: 23:13:59
(UTC+02:00)
Language:

FO-29 - Orbit

View from above orbital plane
View from above orbital plane
View from above satellite
View from above satellite

Ground track
Ground track

The orbit data is extracted from the following two-line orbital elements,

1 24278U 96046B   21262.43071019 -.00000023  00000-0  15697-4 0  9994
2 24278  98.5581 317.9182 0349245 266.1560  89.9591 13.53105865238950
Epoch (UTC): 19 September 2021 10:20:13
Eccentricity: 0.0349245
inclination: 98.5581°
perigee height: 801 km
apogee height: 1320 km
right ascension of ascending node: 317.9182°
argument of perigee: 266.1560°
revolutions per day: 13.53105865
mean anomaly at epoch: 89.9591°
orbit number at epoch: 23895

The dashed part of the orbit path shows where the satellite is in the earth's shadow,  

DLR